| time (UTC) | temp F | wind direction | speed knots | gust knots | rain 1hr in | rain 24hr in | rain mn in | humidity % | barometer mb |
| 20260903220127 | 93 | 131 | 0.9 | 0.9 | 0.00 | 0.00 | 0.00 | 38 | 1011.5 |
| 20260903215625 | 93 | 215 | 4.3 | 4.3 | 0.00 | 0.00 | 0.00 | 37 | 1011.5 |
| 20260903215120 | 95 | 299 | 1.7 | 1.7 | 0.00 | 0.00 | 0.00 | 36 | 1011.6 |
| 20260903214619 | 96 | 253 | 2.6 | 1.7 | 0.00 | 0.00 | 0.00 | 35 | 1011.6 |
| 20260903214115 | 95 | 122 | 2.6 | 4.3 | 0.00 | 0.00 | 0.00 | 36 | 1011.5 |
| 20260903213610 | 94 | 255 | 2.6 | 2.6 | 0.00 | 0.00 | 0.00 | 36 | 1011.7 |
| 20260903213105 | 94 | 230 | 1.7 | 1.7 | 0.00 | 0.00 | 0.00 | 37 | 1011.8 |
| 20260903212601 | 95 | 239 | 4.3 | 4.3 | 0.00 | 0.00 | 0.00 | 36 | 1011.8 |
| 20260903212056 | 95 | 140 | 1.7 | 1.7 | 0.00 | 0.00 | 0.00 | 37 | 1011.9 |
| 20260903211551 | 94 | 253 | 2.6 | 2.6 | 0.00 | 0.00 | 0.00 | 37 | 1011.9 |
| 20260903211048 | 94 | 63 | 0.9 | 0.9 | 0.00 | 0.00 | 0.00 | 38 | 1011.8 |
| 20260903210542 | 94 | 123 | 0.0 | 0.0 | 0.00 | 0.00 | 0.00 | 37 | 1011.9 |
| 20260903210039 | 94 | 306 | 1.7 | 1.7 | 0.00 | 0.00 | 0.00 | 37 | 1012.0 |
| 20260903205538 | 94 | 280 | 2.6 | 2.6 | 0.00 | 0.00 | 0.00 | 38 | 1012.4 |
| 20260903205037 | 94 | 253 | 2.6 | 2.6 | 0.00 | 0.00 | 0.00 | 37 | 1012.2 |
| 20260903204534 | 95 | 301 | 2.6 | 2.6 | 0.00 | 0.00 | 0.00 | 37 | 1012.2 |
| 20260903204029 | 94 | 11 | 0.9 | 1.7 | 0.00 | 0.00 | 0.00 | 38 | 1012.2 |
| 20260903203525 | 93 | 53 | 0.9 | 0.9 | 0.00 | 0.00 | 0.00 | 40 | 1012.4 |
| 20260903203024 | 94 | 257 | 0.0 | 0.0 | 0.00 | 0.00 | 0.00 | 38 | 1012.5 |
| 20260903202520 | 94 | 329 | 0.9 | 1.7 | 0.00 | 0.00 | 0.00 | 39 | 1012.1 |
| 20260903202015 | 93 | 291 | 0.9 | 0.9 | 0.00 | 0.00 | 0.00 | 40 | 1012.6 |
| 20260903201510 | 92 | 15 | 0.0 | 0.0 | 0.00 | 0.00 | 0.00 | 40 | 1012.7 |
| 20260903201009 | 92 | 297 | 1.7 | 2.6 | 0.00 | 0.00 | 0.00 | 41 | 1013.1 |
| 20260903200504 | 92 | 114 | 0.9 | 0.9 | 0.00 | 0.00 | 0.00 | 41 | 1012.9 |
| 20260903195958 | 92 | 276 | 0.9 | 0.9 | 0.00 | 0.00 | 0.00 | 41 | 1013.1 |
| 20260903195455 | 93 | 175 | 0.9 | 0.9 | 0.00 | 0.00 | 0.00 | 40 | 1013.3 |
| 20260903194950 | 92 | 163 | 1.7 | 1.7 | 0.00 | 0.00 | 0.00 | 40 | 1013.4 |
| 20260903194445 | 93 | 198 | 1.7 | 1.7 | 0.00 | 0.00 | 0.00 | 41 | 1013.3 |
| 20260903193940 | 92 | 64 | 0.9 | 0.9 | 0.00 | 0.00 | 0.00 | 41 | 1013.3 |
| 20260903193437 | 91 | 160 | 2.6 | 2.6 | 0.00 | 0.00 | 0.00 | 41 | 1013.5 |
| 20260903192931 | 90 | 345 | 0.9 | 0.9 | 0.00 | 0.00 | 0.00 | 44 | 1013.6 |
| 20260903192428 | 90 | 239 | 0.0 | 0.0 | 0.00 | 0.00 | 0.00 | 43 | 1013.6 |
| 20260903191923 | 90 | 246 | 2.6 | 2.6 | 0.00 | 0.00 | 0.00 | 43 | 1013.6 |
| 20260903191420 | 90 | 250 | 1.7 | 1.7 | 0.00 | 0.00 | 0.00 | 44 | 1013.8 |
| 20260903190919 | 90 | 271 | 0.9 | 0.9 | 0.00 | 0.00 | 0.00 | 44 | 1013.9 |
| 20260903190413 | 90 | 202 | 0.9 | 0.9 | 0.00 | 0.00 | 0.00 | 43 | 1014.2 |
| 20260903185913 | 89 | 238 | 2.6 | 2.6 | 0.00 | 0.00 | 0.00 | 45 | 1014.2 |
| 20260903185408 | 89 | 251 | 0.9 | 2.6 | 0.00 | 0.00 | 0.00 | 44 | 1014.4 |
| 20260903184903 | 88 | 179 | 2.6 | 2.6 | 0.00 | 0.00 | 0.00 | 46 | 1014.5 |
| 20260903184400 | 88 | 228 | 0.9 | 1.7 | 0.00 | 0.00 | 0.00 | 46 | 1014.4 |
| 20260903183854 | 89 | 276 | 4.3 | 4.3 | 0.00 | 0.00 | 0.00 | 45 | 1014.4 |
| 20260903183349 | 88 | 181 | 0.9 | 0.9 | 0.00 | 0.00 | 0.00 | 46 | 1014.5 |
| 20260903182849 | 88 | 214 | 3.5 | 4.3 | 0.00 | 0.00 | 0.00 | 46 | 1014.5 |
| 20260903182348 | 88 | 253 | 3.5 | 4.3 | 0.00 | 0.00 | 0.00 | 45 | 1014.8 |
| 20260903181843 | 89 | 210 | 1.7 | 2.6 | 0.00 | 0.00 | 0.00 | 45 | 1014.7 |
| 20260903181338 | 88 | 143 | 0.0 | 0.0 | 0.00 | 0.00 | 0.00 | 46 | 1014.6 |
| 20260903180837 | 88 | 241 | 5.2 | 6.1 | 0.00 | 0.00 | 0.00 | 45 | 1014.8 |
| 20260903180332 | 89 | 246 | 2.6 | 2.6 | 0.00 | 0.00 | 0.00 | 46 | 1014.9 |
| 20260903175831 | 87 | 149 | 0.0 | 0.0 | 0.00 | 0.00 | 0.00 | 49 | 1014.9 |
| 20260903175331 | 87 | 184 | 3.5 | 4.3 | 0.00 | 0.00 | 0.00 | 48 | 1015.0 |
| 20260903174826 | 87 | 162 | 0.9 | 1.7 | 0.00 | 0.00 | 0.00 | 50 | 1014.9 |
| 20260903174321 | 87 | 195 | 1.7 | 1.7 | 0.00 | 0.00 | 0.00 | 48 | 1015.0 |
| 20260903173820 | 87 | 141 | 0.9 | 0.9 | 0.00 | 0.00 | 0.00 | 50 | 1015.4 |
| 20260903173316 | 86 | 175 | 0.9 | 0.9 | 0.00 | 0.00 | 0.00 | 51 | 1015.0 |
| 20260903172812 | 87 | 223 | 2.6 | 2.6 | 0.00 | 0.00 | 0.00 | 51 | 1015.3 |
| 20260903172307 | 87 | 121 | 0.9 | 1.7 | 0.00 | 0.00 | 0.00 | 50 | 1015.4 |
| 20260903171802 | 87 | 87 | 0.0 | 0.0 | 0.00 | 0.00 | 0.00 | 51 | 1015.3 |
| 20260903171258 | 87 | 190 | 1.7 | 2.6 | 0.00 | 0.00 | 0.00 | 50 | 1015.2 |
| 20260903170756 | 86 | 118 | 0.0 | 0.0 | 0.00 | 0.00 | 0.00 | 51 | 1015.2 |
| 20260903170252 | 86 | 93 | 0.0 | 0.0 | 0.00 | 0.00 | 0.00 | 53 | 1015.3 |
| 20260903165750 | 85 | 116 | 0.9 | 0.9 | 0.00 | 0.00 | 0.00 | 52 | 1015.0 |
| 20260903165245 | 85 | 101 | 0.9 | 0.9 | 0.00 | 0.00 | 0.00 | 53 | 1015.4 |
| 20260903164739 | 84 | 129 | 0.0 | 0.9 | 0.00 | 0.00 | 0.00 | 54 | 1015.3 |
| 20260903164236 | 85 | 125 | 1.7 | 1.7 | 0.00 | 0.00 | 0.00 | 54 | 1015.6 |
| 20260903163734 | 84 | 145 | 1.7 | 1.7 | 0.00 | 0.00 | 0.00 | 55 | 1015.4 |
| 20260903163231 | 84 | 93 | 0.9 | 0.9 | 0.00 | 0.00 | 0.00 | 54 | 1015.7 |
| 20260903162727 | 85 | 70 | 1.7 | 1.7 | 0.00 | 0.00 | 0.00 | 54 | 1015.3 |
| 20260903162223 | 84 | 137 | 0.9 | 0.9 | 0.00 | 0.00 | 0.00 | 54 | 1015.3 |
| 20260903161719 | 85 | 169 | 1.7 | 1.7 | 0.00 | 0.00 | 0.00 | 53 | 1015.3 |
| 20260903161214 | 85 | 132 | 0.0 | 0.0 | 0.00 | 0.00 | 0.00 | 52 | 1015.3 |
| 20260903160709 | 84 | 135 | 0.0 | 0.0 | 0.00 | 0.00 | 0.00 | 54 | 1015.2 |
| 20260903160208 | 84 | 109 | 0.9 | 0.9 | 0.00 | 0.00 | 0.00 | 54 | 1015.2 |
| 20260903155707 | 84 | 108 | 0.9 | 1.7 | 0.00 | 0.00 | 0.00 | 54 | 1015.6 |
| 20260903155202 | 84 | 96 | 0.0 | 0.0 | 0.00 | 0.00 | 0.00 | 56 | 1015.2 |
| 20260903154658 | 84 | 146 | 0.0 | 0.0 | 0.00 | 0.00 | 0.00 | 56 | 1015.3 |
| 20260903154154 | 83 | 146 | 0.0 | 0.0 | 0.00 | 0.00 | 0.00 | 57 | 1015.4 |
| 20260903153649 | 83 | 73 | 0.9 | 0.9 | 0.00 | 0.00 | 0.00 | 57 | 1015.5 |
| 20260903153145 | 82 | 356 | 0.0 | 0.0 | 0.00 | 0.00 | 0.00 | 58 | 1015.4 |
| 20260903152641 | 82 | 356 | 0.0 | 0.0 | 0.00 | 0.00 | 0.00 | 59 | 1015.4 |
| 20260903152137 | 82 | 356 | 0.0 | 0.0 | 0.00 | 0.00 | 0.00 | 60 | 1015.4 |
| 20260903151636 | 82 | 357 | 0.0 | 0.0 | 0.00 | 0.00 | 0.00 | 60 | 1015.5 |
| 20260903151131 | 82 | 358 | 0.9 | 0.9 | 0.00 | 0.00 | 0.00 | 59 | 1015.5 |
| 20260903150626 | 82 | 358 | 0.0 | 0.0 | 0.00 | 0.00 | 0.00 | 59 | 1015.3 |
| 20260903150121 | 82 | 358 | 0.0 | 0.0 | 0.00 | 0.00 | 0.00 | 60 | 1015.5 |
| 20260903145620 | 81 | 358 | 0.0 | 0.0 | 0.00 | 0.00 | 0.00 | 61 | 1015.2 |
| 20260903145115 | 81 | 358 | 0.9 | 0.9 | 0.00 | 0.00 | 0.00 | 62 | 1015.4 |
| 20260903144614 | 80 | 296 | 0.0 | 0.0 | 0.00 | 0.00 | 0.00 | 63 | 1015.5 |
| 20260903144111 | 80 | 320 | 0.9 | 0.9 | 0.00 | 0.00 | 0.00 | 62 | 1015.0 |
| 20260903143607 | 80 | 303 | 0.9 | 0.9 | 0.00 | 0.00 | 0.00 | 62 | 1015.4 |
| 20260903143102 | 80 | 298 | 0.0 | 0.0 | 0.00 | 0.00 | 0.00 | 61 | 1015.4 |
| 20260903142557 | 80 | 332 | 0.9 | 0.9 | 0.00 | 0.00 | 0.00 | 60 | 1015.4 |
| 20260903142054 | 80 | 252 | 0.9 | 1.7 | 0.00 | 0.00 | 0.00 | 60 | 1015.2 |
| 20260903141549 | 80 | 278 | 0.9 | 0.9 | 0.00 | 0.00 | 0.00 | 60 | 1015.3 |
| 20260903141044 | 80 | 288 | 0.9 | 0.9 | 0.00 | 0.00 | 0.00 | 59 | 1015.2 |
| 20260903140540 | 80 | 288 | 0.0 | 0.0 | 0.00 | 0.00 | 0.00 | 59 | 1015.2 |
| 20260903140035 | 80 | 287 | 0.0 | 0.0 | 0.00 | 0.00 | 0.00 | 59 | 1015.2 |
| 20260903135530 | 80 | 295 | 0.0 | 0.0 | 0.00 | 0.00 | 0.00 | 61 | 1015.3 |
| 20260903135025 | 80 | 295 | 0.0 | 0.0 | 0.00 | 0.00 | 0.00 | 62 | 1015.4 |
| 20260903134525 | 80 | 324 | 0.9 | 0.9 | 0.00 | 0.00 | 0.00 | 61 | 1015.0 |
| 20260903134021 | 79 | 335 | 0.9 | 0.9 | 0.00 | 0.00 | 0.00 | 62 | 1015.0 |
| 20260903133518 | 79 | 93 | 0.0 | 0.9 | 0.00 | 0.00 | 0.00 | 66 | 1015.0 |
| 20260903133013 | 78 | 92 | 0.0 | 0.0 | 0.00 | 0.00 | 0.00 | 68 | 1015.0 |
| 20260903132508 | 78 | 92 | 0.0 | 0.0 | 0.00 | 0.00 | 0.00 | 68 | 1015.0 |
| 20260903132003 | 78 | 93 | 0.0 | 0.0 | 0.00 | 0.00 | 0.00 | 69 | 1014.9 |
| 20260903131458 | 78 | 93 | 0.0 | 0.0 | 0.00 | 0.00 | 0.00 | 70 | 1014.8 |
| 20260903130956 | 78 | 93 | 0.0 | 0.0 | 0.00 | 0.00 | 0.00 | 68 | 1014.7 |
| 20260903130452 | 78 | 93 | 0.0 | 0.0 | 0.00 | 0.00 | 0.00 | 69 | 1014.7 |
| 20260903125951 | 78 | 93 | 0.0 | 0.0 | 0.00 | 0.00 | 0.00 | 68 | 1014.7 |
| 20260903125450 | 78 | 93 | 0.0 | 0.0 | 0.00 | 0.00 | 0.00 | 68 | 1014.6 |
| 20260903124945 | 78 | 93 | 0.0 | 0.0 | 0.00 | 0.00 | 0.00 | 67 | 1014.6 |
| 20260903124440 | 78 | 93 | 0.0 | 0.0 | 0.00 | 0.00 | 0.00 | 67 | 1014.6 |
| 20260903123939 | 78 | 93 | 0.0 | 0.0 | 0.00 | 0.00 | 0.00 | 68 | 1014.5 |
| 20260903123434 | 78 | 93 | 0.0 | 0.0 | 0.00 | 0.00 | 0.00 | 67 | 1014.4 |
| 20260903122932 | 78 | 93 | 0.0 | 0.0 | 0.00 | 0.00 | 0.00 | 66 | 1014.3 |
| 20260903122427 | 79 | 93 | 0.0 | 0.0 | 0.00 | 0.00 | 0.00 | 66 | 1014.3 |
| 20260903121925 | 79 | 93 | 0.0 | 0.0 | 0.00 | 0.00 | 0.00 | 66 | 1014.2 |
| 20260903121421 | 78 | 93 | 0.0 | 0.0 | 0.00 | 0.00 | 0.00 | 66 | 1014.4 |
| 20260903120917 | 78 | 92 | 0.0 | 0.0 | 0.00 | 0.00 | 0.00 | 67 | 1014.3 |
| 20260903120416 | 78 | 92 | 0.0 | 0.0 | 0.00 | 0.00 | 0.00 | 67 | 1014.3 |
| 20260903115915 | 79 | 92 | 0.0 | 0.0 | 0.00 | 0.00 | 0.00 | 67 | 1014.0 |
| 20260903115414 | 79 | 92 | 0.0 | 0.0 | 0.00 | 0.00 | 0.00 | 66 | 1014.0 |
| 20260903114909 | 79 | 92 | 0.0 | 0.0 | 0.00 | 0.00 | 0.00 | 66 | 1013.8 |
| 20260903114405 | 79 | 92 | 0.0 | 0.0 | 0.00 | 0.00 | 0.00 | 66 | 1014.0 |
| 20260903113901 | 79 | 92 | 0.0 | 0.0 | 0.00 | 0.00 | 0.00 | 66 | 1014.0 |
| 20260903113356 | 79 | 97 | 0.9 | 0.9 | 0.00 | 0.00 | 0.00 | 66 | 1014.1 |
| 20260903112852 | 79 | 103 | 0.0 | 0.0 | 0.00 | 0.00 | 0.00 | 66 | 1014.2 |
| 20260903112347 | 79 | 85 | 0.0 | 0.0 | 0.00 | 0.00 | 0.00 | 66 | 1014.0 |
| 20260903111846 | 79 | 92 | 0.0 | 0.0 | 0.00 | 0.00 | 0.00 | 65 | 1014.0 |
| 20260903111346 | 79 | 79 | 0.9 | 0.9 | 0.00 | 0.00 | 0.00 | 65 | 1014.2 |
| 20260903110842 | 79 | 73 | 0.9 | 0.9 | 0.00 | 0.00 | 0.00 | 65 | 1014.1 |
| 20260903110337 | 79 | 80 | 0.9 | 0.9 | 0.00 | 0.00 | 0.00 | 65 | 1014.2 |
| 20260903105832 | 79 | 85 | 0.9 | 0.9 | 0.00 | 0.00 | 0.00 | 66 | 1014.4 |
| 20260903105333 | 79 | 98 | 0.9 | 0.9 | 0.00 | 0.00 | 0.00 | 66 | 1013.9 |
| 20260903104832 | 79 | 92 | 0.0 | 0.9 | 0.00 | 0.00 | 0.00 | 66 | 1014.1 |
| 20260903104327 | 79 | 86 | 0.9 | 0.9 | 0.00 | 0.00 | 0.00 | 66 | 1014.1 |
| 20260903103824 | 79 | 79 | 1.7 | 1.7 | 0.00 | 0.00 | 0.00 | 66 | 1014.3 |
| 20260903103320 | 79 | 80 | 0.9 | 0.9 | 0.00 | 0.00 | 0.00 | 66 | 1014.2 |
| 20260903102815 | 79 | 78 | 0.9 | 0.9 | 0.00 | 0.00 | 0.00 | 66 | 1014.3 |
| 20260903102310 | 79 | 81 | 0.0 | 0.9 | 0.00 | 0.00 | 0.00 | 66 | 1014.3 |
| 20260903101809 | 79 | 83 | 0.0 | 0.0 | 0.00 | 0.00 | 0.00 | 66 | 1014.2 |
| 20260903101304 | 79 | 79 | 1.7 | 1.7 | 0.00 | 0.00 | 0.00 | 65 | 1014.3 |
| 20260903100759 | 79 | 84 | 0.9 | 0.9 | 0.00 | 0.00 | 0.00 | 66 | 1014.4 |
| 20260903100254 | 79 | 96 | 0.0 | 0.0 | 0.00 | 0.00 | 0.00 | 65 | 1014.1 |
| 20260903095751 | 79 | 104 | 0.9 | 0.9 | 0.00 | 0.00 | 0.00 | 65 | 1014.3 |
| 20260903095246 | 80 | 105 | 0.9 | 0.9 | 0.00 | 0.00 | 0.00 | 65 | 1014.2 |
| 20260903094741 | 80 | 116 | 0.0 | 0.0 | 0.00 | 0.00 | 0.00 | 65 | 1014.2 |
| 20260903094236 | 80 | 125 | 0.0 | 0.9 | 0.00 | 0.00 | 0.00 | 64 | 1014.3 |
| 20260903093731 | 80 | 123 | 0.0 | 0.0 | 0.00 | 0.00 | 0.00 | 64 | 1014.2 |
| 20260903093227 | 80 | 127 | 0.9 | 0.9 | 0.00 | 0.00 | 0.00 | 63 | 1014.2 |
| 20260903092726 | 80 | 124 | 0.9 | 0.9 | 0.00 | 0.00 | 0.00 | 63 | 1014.4 |
| 20260903092221 | 80 | 93 | 0.9 | 0.9 | 0.00 | 0.00 | 0.00 | 63 | 1014.4 |
| 20260903091720 | 80 | 117 | 0.9 | 0.9 | 0.00 | 0.00 | 0.00 | 63 | 1014.5 |
| 20260903091215 | 80 | 122 | 0.0 | 0.0 | 0.00 | 0.00 | 0.00 | 64 | 1014.3 |
| 20260903090710 | 80 | 122 | 0.0 | 0.0 | 0.00 | 0.00 | 0.00 | 63 | 1014.2 |
| 20260903090208 | 80 | 125 | 0.9 | 0.9 | 0.00 | 0.00 | 0.00 | 63 | 1014.2 |
| 20260903085707 | 80 | 122 | 0.0 | 0.0 | 0.00 | 0.00 | 0.00 | 63 | 1014.3 |
| 20260903085203 | 80 | 115 | 0.9 | 0.9 | 0.00 | 0.00 | 0.00 | 63 | 1014.3 |
| 20260903084700 | 80 | 109 | 0.0 | 0.0 | 0.00 | 0.00 | 0.00 | 63 | 1014.6 |
| 20260903084155 | 80 | 109 | 0.9 | 0.9 | 0.00 | 0.00 | 0.00 | 63 | 1014.4 |
| 20260903083652 | 80 | 98 | 0.0 | 0.9 | 0.00 | 0.00 | 0.00 | 63 | 1014.3 |
| 20260903083151 | 81 | 98 | 0.0 | 0.0 | 0.00 | 0.00 | 0.00 | 63 | 1014.3 |
| 20260903082645 | 81 | 126 | 0.9 | 0.9 | 0.00 | 0.00 | 0.00 | 62 | 1014.5 |
| 20260903082141 | 81 | 153 | 0.0 | 0.0 | 0.00 | 0.00 | 0.00 | 62 | 1014.3 |
| 20260903081636 | 81 | 154 | 0.0 | 0.0 | 0.00 | 0.00 | 0.00 | 62 | 1014.3 |
| 20260903081132 | 81 | 132 | 0.9 | 0.9 | 0.00 | 0.00 | 0.00 | 62 | 1014.3 |
| 20260903080628 | 81 | 125 | 0.0 | 0.0 | 0.00 | 0.00 | 0.00 | 62 | 1014.4 |
| 20260903080126 | 81 | 125 | 0.0 | 0.0 | 0.00 | 0.00 | 0.00 | 62 | 1014.6 |
| 20260903075624 | 81 | 194 | 0.0 | 0.0 | 0.00 | 0.00 | 0.00 | 62 | 1014.3 |
| 20260903075120 | 81 | 194 | 0.0 | 0.0 | 0.00 | 0.00 | 0.00 | 61 | 1014.4 |
| 20260903074619 | 82 | 195 | 0.9 | 0.9 | 0.00 | 0.00 | 0.00 | 60 | 1014.6 |
| 20260903074114 | 82 | 123 | 0.0 | 0.0 | 0.00 | 0.00 | 0.00 | 60 | 1014.3 |
| 20260903073609 | 82 | 134 | 1.7 | 2.6 | 0.00 | 0.00 | 0.00 | 60 | 1014.3 |
| 20260903073105 | 82 | 98 | 0.0 | 0.0 | 0.00 | 0.00 | 0.00 | 60 | 1014.4 |
| 20260903072601 | 82 | 122 | 0.9 | 0.9 | 0.00 | 0.00 | 0.00 | 59 | 1014.4 |
| 20260903072057 | 82 | 106 | 0.0 | 0.0 | 0.00 | 0.00 | 0.00 | 59 | 1014.5 |
| 20260903071554 | 82 | 102 | 0.9 | 0.9 | 0.00 | 0.00 | 0.00 | 59 | 1014.5 |
| 20260903071054 | 82 | 124 | 0.9 | 0.9 | 0.00 | 0.00 | 0.00 | 58 | 1014.3 |
| 20260903070554 | 82 | 129 | 2.6 | 1.7 | 0.00 | 0.00 | 0.00 | 58 | 1014.3 |
| 20260903070050 | 82 | 117 | 0.9 | 0.9 | 0.00 | 0.00 | 0.00 | 58 | 1014.2 |
| 20260903065548 | 82 | 112 | 0.9 | 0.9 | 0.00 | 0.00 | 0.00 | 58 | 1014.1 |
| 20260903065043 | 82 | 110 | 0.9 | 0.9 | 0.00 | 0.00 | 0.00 | 58 | 1014.2 |
| 20260903064543 | 82 | 112 | 0.9 | 0.9 | 0.00 | 0.00 | 0.00 | 57 | 1014.3 |
| 20260903064038 | 82 | 110 | 0.9 | 0.9 | 0.00 | 0.00 | 0.00 | 58 | 1014.3 |
| 20260903063533 | 82 | 103 | 0.0 | 0.0 | 0.00 | 0.00 | 0.00 | 58 | 1014.2 |
| 20260903063029 | 82 | 103 | 0.0 | 0.0 | 0.00 | 0.00 | 0.00 | 58 | 1014.2 |
| 20260903062524 | 82 | 103 | 0.0 | 0.0 | 0.00 | 0.00 | 0.00 | 58 | 1014.3 |
| 20260903062019 | 82 | 103 | 0.0 | 0.0 | 0.00 | 0.00 | 0.00 | 57 | 1014.1 |
| 20260903061514 | 82 | 105 | 0.0 | 0.0 | 0.00 | 0.00 | 0.00 | 56 | 1014.3 |
| 20260903061009 | 82 | 105 | 0.0 | 0.0 | 0.00 | 0.00 | 0.00 | 57 | 1014.1 |
| 20260903060503 | 82 | 105 | 0.0 | 0.0 | 0.00 | 0.00 | 0.00 | 56 | 1014.3 |
| 20260903060004 | 83 | 105 | 0.0 | 0.0 | 0.00 | 0.00 | 0.00 | 56 | 1014.1 |
| 20260903055501 | 83 | 105 | 0.0 | 0.9 | 0.00 | 0.00 | 0.00 | 55 | 1014.3 |
| 20260903055000 | 83 | 105 | 0.0 | 0.9 | 0.00 | 0.00 | 0.00 | 55 | 1014.1 |
| 20260903054455 | 83 | 105 | 0.0 | 0.0 | 0.00 | 0.00 | 0.00 | 54 | 1014.3 |
| 20260903053951 | 83 | 105 | 0.9 | 0.9 | 0.00 | 0.00 | 0.00 | 54 | 1014.4 |
| 20260903053450 | 83 | 105 | 0.9 | 0.9 | 0.00 | 0.00 | 0.00 | 53 | 1014.4 |
| 20260903052947 | 84 | 105 | 0.0 | 0.0 | 0.00 | 0.00 | 0.00 | 52 | 1014.3 |
| 20260903052443 | 84 | 132 | 0.9 | 0.9 | 0.00 | 0.00 | 0.00 | 52 | 1014.5 |
| 20260903051938 | 84 | 133 | 0.0 | 0.0 | 0.00 | 0.00 | 0.00 | 52 | 1014.4 |
| 20260903051433 | 84 | 123 | 0.0 | 0.0 | 0.00 | 0.00 | 0.00 | 51 | 1014.5 |
| 20260903050929 | 84 | 122 | 0.9 | 0.9 | 0.00 | 0.00 | 0.00 | 51 | 1014.4 |
| 20260903050428 | 84 | 134 | 0.0 | 0.0 | 0.00 | 0.00 | 0.00 | 51 | 1014.7 |
| 20260903045922 | 84 | 152 | 0.9 | 0.9 | 0.00 | 0.00 | 0.00 | 51 | 1014.5 |
| 20260903045418 | 84 | 109 | 0.9 | 0.9 | 0.00 | 0.00 | 0.00 | 51 | 1014.5 |
| 20260903044915 | 84 | 108 | 0.0 | 0.0 | 0.00 | 0.00 | 0.00 | 51 | 1014.4 |
| 20260903044415 | 84 | 108 | 0.0 | 0.0 | 0.00 | 0.00 | 0.00 | 51 | 1014.5 |
| 20260903043912 | 84 | 107 | 0.0 | 0.0 | 0.00 | 0.00 | 0.00 | 52 | 1014.3 |
| 20260903043407 | 84 | 107 | 0.0 | 0.0 | 0.00 | 0.00 | 0.00 | 51 | 1014.1 |
| 20260903042905 | 84 | 106 | 0.0 | 0.0 | 0.00 | 0.00 | 0.00 | 51 | 1014.0 |
| 20260903042401 | 84 | 112 | 0.0 | 0.0 | 0.00 | 0.00 | 0.00 | 51 | 1014.3 |
| 20260903041856 | 84 | 112 | 0.9 | 0.9 | 0.00 | 0.00 | 0.00 | 51 | 1014.1 |
| 20260903041352 | 84 | 112 | 0.0 | 0.0 | 0.00 | 0.00 | 0.00 | 51 | 1014.1 |
| 20260903040848 | 85 | 112 | 0.0 | 0.0 | 0.00 | 0.00 | 0.00 | 50 | 1014.0 |
| 20260903040347 | 85 | 117 | 1.7 | 1.7 | 0.00 | 0.00 | 0.00 | 50 | 1014.2 |
| 20260903035843 | 85 | 185 | 0.0 | 0.0 | 0.00 | 0.00 | 0.00 | 50 | 1014.1 |
| 20260903035338 | 85 | 131 | 0.9 | 0.9 | 0.00 | 0.00 | 0.00 | 49 | 1014.3 |
| 20260903034833 | 85 | 127 | 0.9 | 0.9 | 0.00 | 0.00 | 0.00 | 48 | 1014.2 |
| 20260903034329 | 86 | 88 | 0.9 | 0.9 | 0.00 | 0.00 | 0.00 | 47 | 1014.1 |
| 20260903033824 | 86 | 122 | 0.9 | 0.9 | 0.00 | 0.00 | 0.00 | 47 | 1014.0 |
| 20260903033319 | 86 | 120 | 0.9 | 0.9 | 0.00 | 0.00 | 0.00 | 47 | 1014.2 |
| 20260903032818 | 86 | 123 | 1.7 | 0.9 | 0.00 | 0.00 | 0.00 | 47 | 1013.8 |
| 20260903032315 | 86 | 113 | 1.7 | 1.7 | 0.00 | 0.00 | 0.00 | 48 | 1013.5 |
| 20260903031810 | 85 | 120 | 0.0 | 0.0 | 0.00 | 0.00 | 0.00 | 50 | 1013.6 |
| 20260903031309 | 85 | 121 | 1.7 | 0.9 | 0.00 | 0.00 | 0.00 | 50 | 1013.6 |
| 20260903030805 | 85 | 129 | 0.9 | 0.9 | 0.00 | 0.00 | 0.00 | 51 | 1013.5 |
| 20260903030301 | 84 | 129 | 0.0 | 0.0 | 0.00 | 0.00 | 0.00 | 52 | 1013.4 |
| 20260903025756 | 84 | 129 | 0.0 | 0.0 | 0.00 | 0.00 | 0.00 | 53 | 1013.5 |
| 20260903025252 | 84 | 129 | 0.0 | 0.0 | 0.00 | 0.00 | 0.00 | 52 | 1013.2 |
| 20260903024746 | 84 | 130 | 0.0 | 0.0 | 0.00 | 0.00 | 0.00 | 53 | 1013.1 |
| 20260903024245 | 84 | 130 | 0.0 | 0.0 | 0.00 | 0.00 | 0.00 | 53 | 1013.1 |
| 20260903023741 | 85 | 130 | 0.0 | 0.0 | 0.00 | 0.00 | 0.00 | 53 | 1013.0 |
| 20260903023237 | 85 | 133 | 0.0 | 0.0 | 0.00 | 0.00 | 0.00 | 52 | 1013.0 |
| 20260903022737 | 85 | 140 | 0.0 | 0.0 | 0.00 | 0.00 | 0.00 | 51 | 1012.9 |
| 20260903022235 | 85 | 141 | 0.9 | 0.9 | 0.00 | 0.00 | 0.00 | 51 | 1013.1 |
| 20260903021730 | 86 | 141 | 0.0 | 0.0 | 0.00 | 0.00 | 0.00 | 50 | 1012.8 |
| 20260903021225 | 86 | 141 | 0.0 | 0.0 | 0.00 | 0.00 | 0.00 | 49 | 1012.8 |
| 20260903020725 | 86 | 159 | 0.0 | 0.0 | 0.00 | 0.00 | 0.00 | 48 | 1012.8 |
| 20260903020220 | 86 | 159 | 0.0 | 0.0 | 0.00 | 0.00 | 0.00 | 47 | 1012.9 |
| 20260903015715 | 87 | 158 | 0.0 | 0.0 | 0.00 | 0.00 | 0.00 | 47 | 1013.0 |
| 20260903015211 | 87 | 155 | 0.9 | 0.9 | 0.00 | 0.00 | 0.00 | 47 | 1013.3 |
| 20260903014706 | 87 | 171 | 2.6 | 2.6 | 0.00 | 0.00 | 0.00 | 46 | 1013.1 |
| 20260903014205 | 87 | 203 | 1.7 | 1.7 | 0.00 | 0.00 | 0.00 | 46 | 1013.1 |
| 20260903013700 | 87 | 189 | 0.0 | 0.0 | 0.00 | 0.00 | 0.00 | 46 | 1012.9 |
| 20260903013200 | 88 | 199 | 0.9 | 0.9 | 0.00 | 0.00 | 0.00 | 45 | 1013.2 |
| 20260903012658 | 88 | 170 | 0.9 | 0.9 | 0.00 | 0.00 | 0.00 | 45 | 1012.7 |
| 20260903012158 | 88 | 194 | 0.9 | 0.9 | 0.00 | 0.00 | 0.00 | 44 | 1012.7 |
| 20260903011653 | 88 | 214 | 3.5 | 4.3 | 0.00 | 0.00 | 0.00 | 44 | 1012.7 |
| 20260903011152 | 88 | 212 | 1.7 | 1.7 | 0.00 | 0.00 | 0.00 | 44 | 1012.7 |
| 20260903010648 | 89 | 219 | 3.5 | 4.3 | 0.00 | 0.00 | 0.00 | 43 | 1012.8 |
| 20260903010147 | 89 | 201 | 2.6 | 2.6 | 0.00 | 0.00 | 0.00 | 43 | 1012.6 |
| 20260903005647 | 89 | 205 | 0.9 | 1.7 | 0.00 | 0.00 | 0.00 | 44 | 1012.5 |
| 20260903005142 | 89 | 238 | 4.3 | 5.2 | 0.00 | 0.00 | 0.00 | 43 | 1012.5 |
| 20260903004637 | 89 | 233 | 1.7 | 1.7 | 0.00 | 0.00 | 0.00 | 43 | 1012.6 |
| 20260903004132 | 89 | 232 | 2.6 | 4.3 | 0.00 | 0.00 | 0.00 | 43 | 1012.6 |
| 20260903003627 | 89 | 229 | 4.3 | 5.2 | 0.00 | 0.00 | 0.00 | 42 | 1012.6 |
| 20260903003117 | 89 | 227 | 2.6 | 4.3 | 0.00 | 0.00 | 0.00 | 40 | 1012.8 |
| 20260903002612 | 90 | 247 | 3.5 | 4.3 | 0.00 | 0.00 | 0.00 | 39 | 1012.8 |
| 20260903002112 | 90 | 235 | 2.6 | 4.3 | 0.00 | 0.00 | 0.00 | 40 | 1012.8 |
| 20260903001607 | 90 | 231 | 4.3 | 5.2 | 0.00 | 0.00 | 0.00 | 39 | 1012.7 |
| 20260903001101 | 90 | 243 | 4.3 | 6.1 | 0.00 | 0.00 | 0.00 | 39 | 1012.9 |
| 20260903000556 | 90 | 247 | 4.3 | 6.1 | 0.00 | 0.00 | 0.00 | 39 | 1012.8 |
| 20260903000050 | 91 | 228 | 2.6 | 2.6 | 0.00 | 0.00 | 0.00 | 38 | 1013.0 |
| 20260902235549 | 90 | 190 | 2.6 | 5.2 | 0.00 | 0.00 | 0.00 | 40 | 1012.7 |
| 20260902235044 | 91 | 245 | 4.3 | 4.3 | 0.00 | 0.00 | 0.00 | 39 | 1012.9 |
| 20260902234544 | 90 | 188 | 2.6 | 2.6 | 0.00 | 0.00 | 0.00 | 39 | 1012.7 |
| 20260902234043 | 91 | 185 | 3.5 | 5.2 | 0.00 | 0.00 | 0.00 | 39 | 1012.7 |
| 20260902233538 | 91 | 236 | 4.3 | 5.2 | 0.00 | 0.00 | 0.00 | 40 | 1012.9 |
| 20260902233032 | 92 | 238 | 2.6 | 4.3 | 0.00 | 0.00 | 0.00 | 38 | 1012.9 |
| 20260902232532 | 91 | 188 | 0.9 | 1.7 | 0.00 | 0.00 | 0.00 | 38 | 1012.8 |
| 20260902232026 | 92 | 232 | 3.5 | 4.3 | 0.00 | 0.00 | 0.00 | 38 | 1012.9 |
| 20260902231521 | 92 | 205 | 2.6 | 1.7 | 0.00 | 0.00 | 0.00 | 39 | 1013.1 |
| 20260902231021 | 92 | 167 | 2.6 | 2.6 | 0.00 | 0.00 | 0.00 | 38 | 1013.1 |
| 20260902230520 | 92 | 218 | 2.6 | 4.3 | 0.00 | 0.00 | 0.00 | 40 | 1013.0 |
| 20260902230015 | 93 | 192 | 6.1 | 7.8 | 0.00 | 0.00 | 0.00 | 37 | 1013.4 |
| 20260902225510 | 93 | 228 | 4.3 | 7.0 | 0.00 | 0.00 | 0.00 | 38 | 1013.1 |
| 20260902225004 | 93 | 221 | 4.3 | 5.2 | 0.00 | 0.00 | 0.00 | 37 | 1013.3 |
| 20260902224502 | 91 | 202 | 5.2 | 6.1 | 0.00 | 0.00 | 0.00 | 37 | 1013.0 |
| 20260902223954 | 91 | 174 | 1.7 | 1.7 | 0.00 | 0.00 | 0.00 | 38 | 1013.4 |
| 20260902223449 | 91 | 129 | 0.9 | 0.9 | 0.00 | 0.00 | 0.00 | 38 | 1013.3 |
| 20260902222948 | 91 | 185 | 3.5 | 4.3 | 0.00 | 0.00 | 0.00 | 37 | 1013.3 |
| 20260902222447 | 91 | 188 | 4.3 | 6.1 | 0.00 | 0.00 | 0.00 | 38 | 1013.3 |
| 20260902221947 | 91 | 208 | 4.3 | 5.2 | 0.00 | 0.00 | 0.00 | 39 | 1013.3 |
| 20260902221446 | 90 | 193 | 4.3 | 6.1 | 0.00 | 0.00 | 0.00 | 39 | 1013.3 |
| 20260902220942 | 91 | 200 | 6.1 | 7.0 | 0.00 | 0.00 | 0.00 | 41 | 1013.8 |
| 20260902220441 | 92 | 226 | 4.3 | 6.1 | 0.00 | 0.00 | 0.00 | 41 | 1013.5 |